This is the latest recevied weather packets stored in our database for station/object SQ7IQO. If no packets are shown the sender has not sent any weather packets the latest 10 day(s).
| Time | Temp. | Humidity | Pressure | Rain* | Wind** | Luminosity | Snow |
|---|---|---|---|---|---|---|---|
| 1787910339 | 24.44° C | 43% | 1020.4 hPa | 0 mm | 0 m/s | - | - |
| 1787910279 | 24.44° C | 44% | 1020.4 hPa | 0 mm | 0.89 m/s, ° | - | - |
| 1787910219 | 24.44° C | 44% | 1020.3 hPa | 0 mm | 0.45 m/s, ° | - | - |
| 1787910160 | 24.44° C | 45% | 1020.4 hPa | 0 mm | 0.89 m/s, ° | - | - |
| 1787910099 | 25° C | 44% | 1020.3 hPa | 0 mm | 0.45 m/s, ° | - | - |
| 1787910039 | 25° C | 45% | 1020.4 hPa | 0 mm | 0.45 m/s, ° | - | - |
| 1787909979 | 25° C | 44% | 1020.4 hPa | 0 mm | 0.89 m/s, ° | - | - |
| 1787909919 | 24.44° C | 45% | 1020.4 hPa | 0 mm | 0 m/s | - | - |
| 1787909859 | 23.89° C | 46% | 1020.4 hPa | 0 mm | 0 m/s | - | - |
| 1787909799 | 24.44° C | 43% | 1020.4 hPa | 0 mm | 0.89 m/s, ° | - | - |
| 1787909740 | 24.44° C | 45% | 1020.4 hPa | 0 mm | 0.89 m/s, ° | - | - |
| 1787909679 | 23.89° C | 44% | 1020.4 hPa | 0 mm | 0 m/s | - | - |
| 1787909620 | 24.44° C | 45% | 1020.5 hPa | 0 mm | 1.34 m/s, ° | - | - |
| 1787909559 | 24.44° C | 46% | 1020.5 hPa | 0 mm | 0 m/s | - | - |
| 1787909499 | 23.89° C | 45% | 1020.5 hPa | 0 mm | 0.45 m/s, ° | - | - |
| 1787909439 | 23.89° C | 44% | 1020.5 hPa | 0 mm | 0.45 m/s, ° | - | - |
| 1787909379 | 23.89° C | 45% | 1020.5 hPa | 0 mm | 0.89 m/s, ° | - | - |
| 1787909319 | 24.44° C | 43% | 1020.5 hPa | 0 mm | 0.89 m/s, ° | - | - |
| 1787909259 | 23.89° C | 45% | 1020.4 hPa | 0 mm | 0.89 m/s, ° | - | - |
| 1787909199 | 23.89° C | 44% | 1020.6 hPa | 0 mm | 0.89 m/s, ° | - | - |
| 1787909139 | 23.89° C | 47% | 1020.5 hPa | 0 mm | 0.89 m/s, ° | - | - |
| 1787909079 | 23.89° C | 47% | 1020.4 hPa | 0 mm | 0 m/s | - | - |
| 1787909020 | 23.89° C | 46% | 1020.5 hPa | 0 mm | 0 m/s | - | - |
| 1787908959 | 23.33° C | 45% | 1020.6 hPa | 0 mm | 0.45 m/s, ° | - | - |
| 1787908899 | 23.33° C | 45% | 1020.6 hPa | 0 mm | 0 m/s | - | - |
* Rain latest hour (hover to see other rain measurements)
** Current wind speed in m/s (hover to see current wind gust speed)